Find Meteor-2

NORAD ID: 12456 Int'l Des: 1981-043 Owner: GUKOS/GMS Country: SU operational
LEOCIRCULARPOLAR

实时位置

正在加载3D地球...

关于 Meteor-2

正在加载描述...

即将过境

Passes for default location (London). Set your location on the main map for personalized predictions.

高度历史

Loading altitude history...

两行轨道根数

1 12456U 81043A 26104.16577783 .00000040 00000-0 15359-4 0 9992
2 12456 81.2665 161.3542 0046373 313.1201 46.6095 14.11042494310020
Epoch: Apr 14, 2026 • Age: 11 hours

当前状态

高度 898.2 km
速度 7.39 km/s
星下点 55.27°N, 96.25°W
发射日期 May 14, 1981
运行时间 44.9 years
类型 other

技术详情

分类 Payload
质量 1500.00 kg
干质量 1500.00 kg
总质量 1500.00 kg
长度 4.50 m
直径 1.40 m
跨度 4.50 m
形状 Cyl + 2 Pan
制造商 VNIEM
平台类型 Meteor-2
阶段状态 In Orbit
所有者/国家 GUKOS/GMS/SU

Most Searched